Regional Weather Roundup
Issued by NWS

Home | Current Version | Previous Version | Text Only | Print | Product List | Glossary Off
Versions: 1 2 3 4 5 6 7 8 9 10 11 12 13 14 15 16 17 18 19 20 21 22 23 24 25 26 27 28 29 30 31 32 33 34 35 36 37 38 39 40 41 42 43 44 45 46 47 48 49 50

000
ASUS43 KBIS 160710
RWRND

NORTH DAKOTA REGIONAL WEATHER ROUNDUP
NATIONAL WEATHER SERVICE BISMARCK ND
200 AM CDT WED APR 16 2014

NOTE: "FAIR" INDICATES FEW OR NO CLOUDS BELOW 12,000 FEET WITH NO
SIGNIFICANT WEATHER AND/OR OBSTRUCTIONS TO VISIBILITY.


NDZ001>003-009>011-017-160800-
NORTHWEST NORTH DAKOTA

CITY           SKY/WX    TMP DP  RH WIND       PRES   REMARKS
WILLISTON        N/A    N/A N/A N/A MISG      29.83R
MINOT          LGT SNOW  24  20  84 E18       29.89R FOG     WCI  10
MINOT AFB      LGT SNOW  23  23 100 E16       29.90R FOG     WCI  10
$$

NDZ018>021-031>035-040>046-160800-
SOUTHWEST NORTH DAKOTA

CITY           SKY/WX    TMP DP  RH WIND       PRES   REMARKS
BISMARCK       CLOUDY    30  16  56 E21G30    29.78R WCI  17
DICKINSON      CLOUDY    28  18  66 NE14      29.70R WCI  17
GARRISON         N/A     27  21  78 E18G29    29.82R WCI  14
HETTINGER ARPT CLOUDY    33  23  66 E9        29.66R
$$

NDZ004>008-012>016-024-026-027-054-160800-
NORTHEAST NORTH DAKOTA

CITY           SKY/WX    TMP DP  RH WIND       PRES   REMARKS
GRAND FORKS    CLOUDY    29  12  49 E15       29.97S WCI  18
GRND FRKS AFB  CLOUDY    29  13  51 E13       30.01R WCI  18
DEVILS LAKE    CLOUDY    27  12  54 E21       29.95R WCI  13
$$

NDZ022-023-025-028>030-036>039-047>053-160800-
SOUTHEAST NORTH DAKOTA

CITY           SKY/WX    TMP DP  RH WIND       PRES   REMARKS
FARGO          LGT SNOW  30  22  72 SE16      29.96F WCI  19
JAMESTOWN      CLOUDY    27  23  85 E22G30    29.85F WCI  13
$$




USA.gov is the U.S. government's official web portal to all federal, state and local government web resources and services.